Date,TemperatureHighF,TemperatureAvgF,TemperatureLowF,DewpointHighF,DewpointAvgF,DewpointLowF,HumidityHigh,HumidityAvg,HumidityLow,PressureMaxIn,PressureMinIn,WindSpeedMaxMPH,WindSpeedAvgMPH,GustSpeedMaxMPH,PrecipitationSumIn
2013-3-1,70.1,49.9,29.8,29.5,19.9,12.5,51,32,15,29.23,29.09,5,1,8,0.00
2013-3-2,64.4,48.3,35.6,26.9,21.6,16.4,54,36,24,29.35,29.21,5,2,8,0.00
2013-3-3,76.3,52.8,34.1,33.9,24.5,15.2,49,35,18,29.21,28.85,5,2,8,0.00
2013-3-4,90.0,68.1,55.0,45.2,37.8,30.8,62,36,16,28.85,28.64,4,2,8,0.00
2013-3-5,66.9,55.0,36.0,43.9,18.1,-0.8,53,26,10,29.32,28.70,6,2,9,0.00
2013-3-6,66.4,47.3,30.1,24.5,12.7,2.5,36,25,14,29.38,29.15,3,1,6,0.00
2013-3-7,73.1,56.2,36.7,44.8,31.8,10.3,55,40,30,29.21,29.03,3,1,6,0.00
2013-3-8,63.0,59.4,56.0,60.0,51.4,43.5,90,75,54,29.12,28.97,3,1,7,0.07
2013-3-9,71.2,65.4,61.0,64.0,59.4,54.6,89,81,69,28.97,28.61,4,2,10,0.21
2013-3-10,64.4,57.1,42.2,60.1,37.0,24.4,92,50,29,29.06,28.73,6,2,11,0.87
2013-3-11,68.3,49.0,34.9,28.0,23.3,19.9,59,39,20,29.12,28.97,4,1,8,0.00
2013-3-12,80.4,57.0,35.2,37.0,28.3,21.1,59,37,17,29.21,29.00,4,1,7,0.00
2013-3-13,75.8,60.4,43.8,34.7,29.2,22.5,43,32,21,29.38,29.21,3,1,6,0.00
2013-3-14,78.8,62.5,46.2,45.6,36.5,29.2,62,40,24,29.32,29.15,4,1,8,0.00
2013-3-15,81.6,67.0,53.8,50.5,40.7,29.9,75,43,20,29.18,28.94,4,2,10,0.00
2013-3-16,85.0,69.4,57.0,52.4,46.7,38.1,73,48,24,28.97,28.70,5,3,9,0.00
2013-3-17,84.5,71.0,64.0,57.1,53.2,47.7,70,55,32,28.76,28.61,4,1,7,0.00
2013-3-18,86.4,72.2,58.8,61.5,48.0,36.1,82,49,20,28.91,28.67,4,1,7,0.00
2013-3-19,82.9,63.9,46.4,51.0,42.6,31.6,82,47,32,29.00,28.79,4,1,8,0.98
2013-3-20,69.4,59.3,49.8,51.5,39.9,29.3,90,54,24,29.21,29.00,5,2,9,0.16
2013-3-21,73.7,62.3,49.8,54.8,44.7,33.4,70,53,43,29.00,28.56,5,2,9,0.00
2013-3-22,77.3,68.3,52.2,61.4,53.4,40.0,80,61,40,28.76,28.59,4,2,6,0.00
2013-3-23,76.8,56.3,49.3,55.1,45.9,40.3,86,69,44,28.76,28.59,3,1,6,0.00
2013-3-24,58.4,50.3,39.4,55.2,26.8,16.9,89,43,26,29.12,28.67,6,3,10,0.00
2013-3-25,59.5,46.9,33.6,21.5,16.8,13.6,44,31,19,29.32,29.12,3,1,7,0.00
2013-3-26,64.1,48.4,28.1,27.1,19.1,12.2,53,32,21,29.41,29.23,3,1,6,0.00
2013-3-27,70.4,55.4,33.9,38.7,28.4,14.2,50,36,27,29.26,29.09,4,2,8,0.00
2013-3-28,72.7,62.6,52.3,51.9,47.1,37.1,70,58,45,29.15,29.06,4,2,9,0.00
2013-3-29,77.8,67.4,59.2,55.6,50.7,47.3,80,57,35,29.15,29.00,4,2,8,0.00
2013-3-30,80.5,70.0,63.0,57.5,53.6,48.6,76,58,37,29.06,28.85,4,2,6,0.00
2013-3-31,73.2,67.9,62.9,67.3,60.3,54.1,91,77,62,28.94,28.82,3,1,6,0.16